DW5225 Weather Reports


Display with metric or nautical units.
time (UTC)temp
F
wind
direction
speed
MPH
gust
MPH
rain 1hr
in
rain 24hr
in
rain mn
in
humidity
%
barometer
mb
20260503211539 62 0 0.0 0.0 0.00 0.00 0.00 38 1016.0
20260503210036 63 0 0.0 0.0 0.00 0.00 0.00 37 1015.8
20260503204544 63 0 0.0 0.0 0.00 0.00 0.00 36 1015.7
20260503203041 63 0 0.0 0.0 0.00 0.00 0.00 36 1015.8
20260503201541 63 0 0.0 0.0 0.00 0.00 0.00 37 1015.8
20260503200041 63 0 0.0 0.0 0.00 0.00 0.00 36 1015.7
20260503194542 64 0 0.0 0.0 0.00 0.00 0.00 35 1015.7
20260503193044 64 0 0.0 0.0 0.00 0.00 0.00 33 1015.7
20260503191542 65 0 0.0 0.0 0.00 0.00 0.00 33 1015.5
20260503190042 65 0 0.0 0.0 0.00 0.00 0.00 31 1015.4
20260503184540 65 0 0.0 0.0 0.00 0.00 0.00 30 1015.4
20260503183053 66 0 0.0 0.0 0.00 0.00 0.00 30 1015.3
20260503181554 66 0 0.0 0.0 0.00 0.00 0.00 28 1015.0
20260503180044 67 0 0.0 0.0 0.00 0.00 0.00 26 1014.7
20260503174543 67 0 0.0 0.0 0.00 0.00 0.00 25 1014.5
20260503173039 68 0 0.0 0.0 0.00 0.00 0.00 24 1014.4
20260503171539 68 0 0.0 0.0 0.00 0.00 0.00 23 1014.5
20260503081536 62 0 0.0 0.0 0.00 0.00 0.00 47 1018.4
20260503071541 59 0 0.0 0.0 0.00 0.00 0.00 48 1018.9
20260503054543 53 0 0.0 0.0 0.00 0.00 0.00 56 1019.3
20260503053040 53 0 0.0 0.0 0.00 0.00 0.00 54 1019.3
20260503051536 53 0 0.0 0.0 0.00 0.00 0.00 54 1019.3
20260503050045 54 0 0.0 0.0 0.00 0.00 0.00 53 1019.4
20260503044543 53 0 0.0 0.0 0.00 0.00 0.00 54 1019.5
20260503043044 53 0 0.0 0.0 0.00 0.00 0.00 54 1019.5
20260503041540 53 0 0.0 0.0 0.00 0.00 0.00 54 1019.6
20260503040041 53 0 0.0 0.0 0.00 0.00 0.00 54 1019.5
20260503034546 53 0 0.0 0.0 0.00 0.00 0.00 54 1019.5
20260503033048 54 0 0.0 0.0 0.00 0.00 0.00 52 1019.5
20260503031540 55 0 0.0 0.0 0.00 0.00 0.00 50 1019.5
20260503030040 55 0 0.0 0.0 0.00 0.00 0.00 50 1019.4
20260503024540 55 0 0.0 0.0 0.00 0.00 0.00 49 1019.5
20260503023040 56 0 0.0 0.0 0.00 0.00 0.00 48 1019.5
20260503021543 56 0 0.0 0.0 0.00 0.00 0.00 48 1019.5
20260503020042 56 0 0.0 0.0 0.00 0.00 0.00 47 1019.5
20260503014542 56 0 0.0 0.0 0.00 0.00 0.00 47 1019.4
20260503013050 56 0 0.0 0.0 0.00 0.00 0.00 47 1019.4
20260503011543 57 0 0.0 0.0 0.00 0.00 0.00 47 1019.3
20260503004611 57 0 0.0 0.0 0.00 0.00 0.00 45 1019.4
20260503003041 58 0 0.0 0.0 0.00 0.00 0.00 44 1019.4
20260503001541 58 0 0.0 0.0 0.00 0.00 0.00 43 1019.5
20260503000042 58 0 0.0 0.0 0.00 0.00 0.00 43 1019.6
20260502234541 59 0 0.0 0.0 0.00 0.00 0.00 42 1019.7
20260502233039 59 0 0.0 0.0 0.00 0.00 0.00 41 1019.9
20260502231536 59 0 0.0 0.0 0.00 0.00 0.00 41 1019.9
20260502230044 59 0 0.0 0.0 0.00 0.00 0.00 41 1019.9
20260502224543 60 0 0.0 0.0 0.00 0.00 0.00 40 1019.8
20260502223044 60 0 0.0 0.0 0.00 0.00 0.00 41 1020.0
20260502221538 60 0 0.0 0.0 0.00 0.00 0.00 42 1020.1
20260502220041 60 0 0.0 0.0 0.00 0.00 0.00 42 1020.0
20260502214552 60 0 0.0 0.0 0.00 0.00 0.00 42 1020.0
20260502213042 60 0 0.0 0.0 0.00 0.00 0.00 42 1020.0